| time (UTC) | temp F | wind direction | speed MPH | gust MPH | rain 1hr in | rain 24hr in | rain mn in | humidity % | barometer mb |
| 20260504024044 | 62 | 171 | 2.0 | 4.0 | 0.00 | 0.00 | 0.00 | 42 | 1004.2 |
| 20260504023545 | 61 | 170 | 1.0 | 4.0 | 0.00 | 0.00 | 0.00 | 43 | 1004.2 |
| 20260504023051 | 62 | 196 | 1.0 | 2.0 | 0.00 | 0.00 | 0.00 | 43 | 1004.2 |
| 20260504022547 | 62 | 196 | 1.0 | 2.0 | 0.00 | 0.00 | 0.00 | 42 | 1004.1 |
| 20260504022051 | 63 | 196 | 1.0 | 3.0 | 0.00 | 0.00 | 0.00 | 42 | 1004.2 |
| 20260504021552 | 63 | 241 | 1.0 | 4.0 | 0.00 | 0.00 | 0.00 | 40 | 1004.0 |
| 20260504021048 | 64 | 229 | 0.0 | 6.0 | 0.00 | 0.00 | 0.00 | 40 | 1004.0 |
| 20260504020548 | 64 | 240 | 2.0 | 6.0 | 0.00 | 0.00 | 0.00 | 40 | 1004.0 |
| 20260504015548 | 64 | 256 | 3.0 | 6.0 | 0.00 | 0.00 | 0.00 | 39 | 1003.9 |
| 20260504015048 | 64 | 280 | 2.0 | 6.0 | 0.00 | 0.00 | 0.00 | 40 | 1003.8 |
| 20260504014557 | 64 | 278 | 2.0 | 6.0 | 0.00 | 0.00 | 0.00 | 40 | 1003.8 |
| 20260504014044 | 64 | 277 | 2.0 | 7.0 | 0.00 | 0.00 | 0.00 | 40 | 1003.7 |
| 20260504013544 | 65 | 271 | 3.0 | 7.0 | 0.00 | 0.00 | 0.00 | 40 | 1003.7 |
| 20260504013053 | 65 | 302 | 3.0 | 11.0 | 0.00 | 0.00 | 0.00 | 39 | 1003.7 |
| 20260504012547 | 65 | 288 | 3.0 | 11.0 | 0.00 | 0.00 | 0.00 | 39 | 1003.7 |
| 20260504012045 | 65 | 293 | 6.0 | 11.0 | 0.00 | 0.00 | 0.00 | 39 | 1003.6 |
| 20260504011549 | 66 | 319 | 4.0 | 10.0 | 0.00 | 0.00 | 0.00 | 40 | 1003.6 |
| 20260504011044 | 66 | 286 | 4.0 | 8.0 | 0.00 | 0.00 | 0.00 | 40 | 1003.6 |
| 20260504010544 | 66 | 271 | 3.0 | 7.0 | 0.00 | 0.00 | 0.00 | 40 | 1003.6 |
| 20260504010052 | 66 | 349 | 3.0 | 9.0 | 0.00 | 0.00 | 0.00 | 40 | 1003.5 |
| 20260504005544 | 67 | 282 | 4.0 | 9.0 | 0.00 | 0.00 | 0.00 | 40 | 1003.5 |
| 20260504005044 | 67 | 283 | 2.0 | 6.0 | 0.00 | 0.00 | 0.00 | 39 | 1003.3 |
| 20260504004550 | 68 | 256 | 2.0 | 7.0 | 0.00 | 0.00 | 0.00 | 39 | 1003.4 |
| 20260504004049 | 68 | 287 | 2.0 | 7.0 | 0.00 | 0.00 | 0.00 | 38 | 1003.4 |
| 20260504003548 | 68 | 259 | 3.0 | 7.0 | 0.00 | 0.00 | 0.00 | 38 | 1003.3 |
| 20260504003051 | 68 | 286 | 2.0 | 7.0 | 0.00 | 0.00 | 0.00 | 38 | 1003.3 |
| 20260504002547 | 68 | 271 | 3.0 | 10.0 | 0.00 | 0.00 | 0.00 | 38 | 1003.3 |
| 20260504002048 | 69 | 283 | 4.0 | 10.0 | 0.00 | 0.00 | 0.00 | 37 | 1003.3 |
| 20260504001553 | 69 | 254 | 2.0 | 8.0 | 0.00 | 0.00 | 0.00 | 38 | 1003.3 |
| 20260504001044 | 69 | 315 | 4.0 | 9.0 | 0.00 | 0.00 | 0.00 | 36 | 1003.1 |
| 20260504000545 | 69 | 267 | 4.0 | 12.0 | 0.00 | 0.00 | 0.00 | 37 | 1003.1 |
| 20260504000054 | 70 | 286 | 5.0 | 12.0 | 0.00 | 0.00 | 0.00 | 37 | 1003.1 |
| 20260503235548 | 70 | 282 | 4.0 | 11.0 | 0.00 | 0.00 | 0.00 | 36 | 1003.0 |
| 20260503235044 | 70 | 271 | 5.0 | 10.0 | 0.00 | 0.00 | 0.00 | 35 | 1003.0 |
| 20260503234550 | 70 | 209 | 4.0 | 10.0 | 0.00 | 0.00 | 0.00 | 35 | 1002.9 |
| 20260503234049 | 70 | 267 | 6.0 | 12.0 | 0.00 | 0.00 | 0.00 | 35 | 1002.9 |
| 20260503233547 | 70 | 286 | 6.0 | 12.0 | 0.00 | 0.00 | 0.00 | 35 | 1003.0 |
| 20260503233050 | 70 | 291 | 8.0 | 12.0 | 0.00 | 0.00 | 0.00 | 35 | 1003.0 |
| 20260503232544 | 71 | 307 | 6.0 | 12.0 | 0.00 | 0.00 | 0.00 | 37 | 1003.0 |
| 20260503232044 | 71 | 296 | 6.0 | 12.0 | 0.00 | 0.00 | 0.00 | 36 | 1003.0 |
| 20260503231550 | 71 | 219 | 3.0 | 13.0 | 0.00 | 0.00 | 0.00 | 38 | 1002.9 |
| 20260503231044 | 71 | 300 | 6.0 | 17.0 | 0.00 | 0.00 | 0.00 | 36 | 1003.0 |
| 20260503230545 | 71 | 253 | 8.0 | 17.0 | 0.00 | 0.00 | 0.00 | 36 | 1003.2 |
| 20260503225544 | 71 | 252 | 7.0 | 14.0 | 0.00 | 0.00 | 0.00 | 36 | 1003.3 |
| 20260503225043 | 71 | 264 | 5.0 | 14.0 | 0.00 | 0.00 | 0.00 | 36 | 1003.2 |
| 20260503224555 | 71 | 214 | 9.0 | 14.0 | 0.00 | 0.00 | 0.00 | 37 | 1003.2 |
| 20260503224043 | 71 | 334 | 7.0 | 13.0 | 0.00 | 0.00 | 0.00 | 36 | 1003.2 |
| 20260503223546 | 71 | 294 | 3.0 | 14.0 | 0.00 | 0.00 | 0.00 | 39 | 1003.3 |
| 20260503223048 | 71 | 175 | 6.0 | 14.0 | 0.00 | 0.00 | 0.00 | 39 | 1003.3 |
| 20260503222545 | 71 | 286 | 6.0 | 14.0 | 0.00 | 0.00 | 0.00 | 38 | 1003.3 |
| 20260503222044 | 71 | 250 | 5.0 | 14.0 | 0.00 | 0.00 | 0.00 | 39 | 1003.1 |
| 20260503221550 | 70 | 249 | 7.0 | 15.0 | 0.00 | 0.00 | 0.00 | 40 | 1003.3 |
| 20260503221044 | 70 | 306 | 8.0 | 15.0 | 0.00 | 0.00 | 0.00 | 40 | 1003.4 |
| 20260503220544 | 71 | 302 | 8.0 | 14.0 | 0.00 | 0.00 | 0.00 | 39 | 1003.3 |
| 20260503220056 | 71 | 243 | 4.0 | 10.0 | 0.00 | 0.00 | 0.00 | 43 | 1003.3 |
| 20260503215543 | 70 | 304 | 3.0 | 11.0 | 0.00 | 0.00 | 0.00 | 41 | 1003.4 |
| 20260503215044 | 70 | 209 | 5.0 | 14.0 | 0.00 | 0.00 | 0.00 | 40 | 1003.4 |
| 20260503214550 | 70 | 242 | 6.0 | 14.0 | 0.00 | 0.00 | 0.00 | 41 | 1003.4 |
| 20260503214044 | 71 | 269 | 6.0 | 15.0 | 0.00 | 0.00 | 0.00 | 40 | 1003.5 |
| 20260503213542 | 71 | 272 | 6.0 | 15.0 | 0.00 | 0.00 | 0.00 | 39 | 1003.4 |
| 20260503213100 | 71 | 234 | 6.0 | 16.0 | 0.00 | 0.00 | 0.00 | 41 | 1003.5 |
| 20260503212543 | 71 | 190 | 3.0 | 16.0 | 0.00 | 0.00 | 0.00 | 42 | 1003.3 |
| 20260503212045 | 71 | 167 | 6.0 | 16.0 | 0.00 | 0.00 | 0.00 | 42 | 1003.4 |
| 20260503211611 | 70 | 218 | 6.0 | 16.0 | 0.00 | 0.00 | 0.00 | 42 | 1003.4 |
| 20260503211042 | 70 | 188 | 5.0 | 16.0 | 0.00 | 0.00 | 0.00 | 42 | 1003.4 |
| 20260503210546 | 70 | 184 | 5.0 | 17.0 | 0.00 | 0.00 | 0.00 | 41 | 1003.5 |
| 20260503210052 | 70 | 280 | 8.0 | 17.0 | 0.00 | 0.00 | 0.00 | 41 | 1003.5 |
| 20260503205544 | 70 | 188 | 6.0 | 15.0 | 0.00 | 0.00 | 0.00 | 42 | 1003.5 |
| 20260503205045 | 70 | 197 | 8.0 | 17.0 | 0.00 | 0.00 | 0.00 | 42 | 1003.6 |
| 20260503204552 | 70 | 182 | 8.0 | 17.0 | 0.00 | 0.00 | 0.00 | 44 | 1003.7 |
| 20260503204042 | 69 | 183 | 9.0 | 18.0 | 0.00 | 0.00 | 0.00 | 44 | 1003.6 |
| 20260503203545 | 70 | 184 | 6.0 | 18.0 | 0.00 | 0.00 | 0.00 | 43 | 1003.8 |
| 20260503203052 | 69 | 188 | 5.0 | 15.0 | 0.00 | 0.00 | 0.00 | 44 | 1003.9 |
| 20260503202546 | 69 | 210 | 8.0 | 14.0 | 0.00 | 0.00 | 0.00 | 43 | 1004.0 |
| 20260503202045 | 69 | 178 | 7.0 | 18.0 | 0.00 | 0.00 | 0.00 | 43 | 1004.1 |
| 20260503201551 | 68 | 181 | 6.0 | 18.0 | 0.00 | 0.00 | 0.00 | 44 | 1004.1 |
| 20260503201048 | 68 | 180 | 7.0 | 20.0 | 0.00 | 0.00 | 0.00 | 44 | 1004.4 |
| 20260503200543 | 68 | 187 | 9.0 | 20.0 | 0.00 | 0.00 | 0.00 | 43 | 1004.4 |
| 20260503200058 | 68 | 238 | 7.0 | 16.0 | 0.00 | 0.00 | 0.00 | 45 | 1004.3 |
| 20260503195542 | 68 | 207 | 10.0 | 16.0 | 0.00 | 0.00 | 0.00 | 44 | 1004.5 |
| 20260503195043 | 68 | 196 | 8.0 | 19.0 | 0.00 | 0.00 | 0.00 | 45 | 1004.4 |
| 20260503194601 | 67 | 173 | 9.0 | 19.0 | 0.00 | 0.00 | 0.00 | 45 | 1004.6 |
| 20260503194045 | 68 | 267 | 7.0 | 18.0 | 0.00 | 0.00 | 0.00 | 44 | 1004.7 |
| 20260503193544 | 68 | 181 | 6.0 | 15.0 | 0.00 | 0.00 | 0.00 | 48 | 1004.8 |
| 20260503193057 | 67 | 201 | 7.0 | 16.0 | 0.00 | 0.00 | 0.00 | 46 | 1004.8 |
| 20260503192544 | 67 | 277 | 8.0 | 19.0 | 0.00 | 0.00 | 0.00 | 45 | 1004.9 |
| 20260503192044 | 67 | 179 | 11.0 | 19.0 | 0.00 | 0.00 | 0.00 | 44 | 1004.9 |
| 20260503191549 | 67 | 223 | 10.0 | 16.0 | 0.00 | 0.00 | 0.00 | 46 | 1004.9 |
| 20260503191044 | 67 | 213 | 7.0 | 16.0 | 0.00 | 0.00 | 0.00 | 46 | 1005.0 |
| 20260503190545 | 67 | 226 | 8.0 | 19.0 | 0.00 | 0.00 | 0.00 | 45 | 1005.1 |
| 20260503190052 | 67 | 233 | 8.0 | 19.0 | 0.00 | 0.00 | 0.00 | 45 | 1005.0 |
| 20260503185544 | 67 | 167 | 8.0 | 15.0 | 0.00 | 0.00 | 0.00 | 45 | 1004.9 |
| 20260503185044 | 67 | 194 | 6.0 | 14.0 | 0.00 | 0.00 | 0.00 | 45 | 1005.0 |
| 20260503184600 | 67 | 207 | 7.0 | 17.0 | 0.00 | 0.00 | 0.00 | 45 | 1005.1 |
| 20260503184044 | 66 | 188 | 11.0 | 17.0 | 0.00 | 0.00 | 0.00 | 45 | 1005.1 |
| 20260503183544 | 66 | 196 | 7.0 | 15.0 | 0.00 | 0.00 | 0.00 | 48 | 1005.2 |
| 20260503183050 | 66 | 184 | 8.0 | 15.0 | 0.00 | 0.00 | 0.00 | 45 | 1005.3 |
| 20260503182543 | 66 | 186 | 7.0 | 16.0 | 0.00 | 0.00 | 0.00 | 46 | 1005.1 |
| 20260503182044 | 66 | 214 | 9.0 | 16.0 | 0.00 | 0.00 | 0.00 | 48 | 1005.2 |
| 20260503181608 | 65 | 205 | 9.0 | 16.0 | 0.00 | 0.00 | 0.00 | 47 | 1005.2 |
| 20260503181044 | 65 | 207 | 8.0 | 16.0 | 0.00 | 0.00 | 0.00 | 47 | 1005.3 |
| 20260503180545 | 65 | 214 | 8.0 | 18.0 | 0.00 | 0.00 | 0.00 | 46 | 1005.5 |
| 20260503180112 | 64 | 207 | 9.0 | 18.0 | 0.00 | 0.00 | 0.00 | 46 | 1005.3 |
| 20260503175544 | 65 | 194 | 8.0 | 19.0 | 0.00 | 0.00 | 0.00 | 47 | 1005.4 |
| 20260503175044 | 64 | 236 | 10.0 | 19.0 | 0.00 | 0.00 | 0.00 | 47 | 1005.4 |
| 20260503174600 | 64 | 184 | 9.0 | 19.0 | 0.00 | 0.00 | 0.00 | 48 | 1005.4 |
| 20260503174048 | 64 | 213 | 13.0 | 19.0 | 0.00 | 0.00 | 0.00 | 47 | 1005.5 |
| 20260503173544 | 64 | 187 | 8.0 | 24.0 | 0.00 | 0.00 | 0.00 | 48 | 1005.6 |
| 20260503173059 | 63 | 229 | 11.0 | 24.0 | 0.00 | 0.00 | 0.00 | 48 | 1005.6 |
| 20260503172546 | 63 | 181 | 12.0 | 22.0 | 0.00 | 0.00 | 0.00 | 48 | 1005.7 |
| 20260503172048 | 63 | 236 | 10.0 | 20.0 | 0.00 | 0.00 | 0.00 | 49 | 1005.8 |
| 20260503171553 | 63 | 194 | 8.0 | 21.0 | 0.00 | 0.00 | 0.00 | 50 | 1005.9 |
| 20260503171048 | 62 | 221 | 11.0 | 22.0 | 0.00 | 0.00 | 0.00 | 48 | 1005.9 |
| 20260503170548 | 62 | 196 | 13.0 | 32.0 | 0.00 | 0.00 | 0.00 | 48 | 1005.9 |
| 20260503150547 | 56 | 178 | 6.0 | 19.0 | 0.00 | 0.00 | 0.00 | 66 | 1007.6 |
| 20260503150106 | 56 | 185 | 8.0 | 16.0 | 0.00 | 0.00 | 0.00 | 66 | 1007.7 |
| 20260503131045 | 50 | 176 | 11.0 | 19.0 | 0.00 | 0.00 | 0.00 | 72 | 1008.6 |
| 20260503130546 | 50 | 169 | 9.0 | 28.0 | 0.00 | 0.00 | 0.00 | 73 | 1008.7 |
| 20260503110544 | 48 | 211 | 6.0 | 12.0 | 0.00 | 0.00 | 0.00 | 59 | 1009.6 |
| 20260503081549 | 49 | 217 | 7.0 | 14.0 | 0.00 | 0.00 | 0.00 | 51 | 1010.4 |
| 20260503081045 | 49 | 192 | 6.0 | 14.0 | 0.00 | 0.00 | 0.00 | 51 | 1010.5 |
| 20260503080546 | 49 | 186 | 6.0 | 14.0 | 0.00 | 0.00 | 0.00 | 51 | 1010.5 |
| 20260503080105 | 49 | 186 | 6.0 | 12.0 | 0.00 | 0.00 | 0.00 | 51 | 1010.6 |
| 20260503072545 | 48 | 231 | 5.0 | 10.0 | 0.00 | 0.00 | 0.00 | 52 | 1010.8 |
| 20260503072043 | 48 | 180 | 5.0 | 10.0 | 0.00 | 0.00 | 0.00 | 52 | 1010.8 |
| 20260503071601 | 48 | 203 | 5.0 | 10.0 | 0.00 | 0.00 | 0.00 | 52 | 1010.9 |
| 20260503071050 | 48 | 202 | 5.0 | 10.0 | 0.00 | 0.00 | 0.00 | 52 | 1010.9 |
| 20260503070543 | 48 | 190 | 5.0 | 10.0 | 0.00 | 0.00 | 0.00 | 52 | 1010.9 |
| 20260503055046 | 48 | 180 | 7.0 | 13.0 | 0.00 | 0.00 | 0.00 | 51 | 1011.5 |
| 20260503054549 | 48 | 196 | 6.0 | 12.0 | 0.00 | 0.00 | 0.00 | 50 | 1011.5 |
| 20260503054045 | 48 | 161 | 8.0 | 12.0 | 0.00 | 0.00 | 0.00 | 50 | 1011.6 |
| 20260503053545 | 49 | 189 | 8.0 | 15.0 | 0.00 | 0.00 | 0.00 | 49 | 1011.6 |
| 20260503053052 | 49 | 179 | 7.0 | 15.0 | 0.00 | 0.00 | 0.00 | 50 | 1011.6 |
| 20260503052545 | 49 | 191 | 7.0 | 13.0 | 0.00 | 0.00 | 0.00 | 49 | 1011.6 |
| 20260503052046 | 49 | 178 | 8.0 | 13.0 | 0.00 | 0.00 | 0.00 | 48 | 1011.7 |
| 20260503051557 | 49 | 207 | 6.0 | 12.0 | 0.00 | 0.00 | 0.00 | 49 | 1011.7 |
| 20260503051045 | 49 | 178 | 7.0 | 12.0 | 0.00 | 0.00 | 0.00 | 48 | 1011.8 |
| 20260503050550 | 50 | 198 | 7.0 | 14.0 | 0.00 | 0.00 | 0.00 | 48 | 1011.9 |
| 20260503050053 | 50 | 188 | 8.0 | 14.0 | 0.00 | 0.00 | 0.00 | 47 | 1011.8 |
| 20260503045545 | 50 | 178 | 7.0 | 14.0 | 0.00 | 0.00 | 0.00 | 47 | 1011.9 |
| 20260503045045 | 50 | 192 | 8.0 | 14.0 | 0.00 | 0.00 | 0.00 | 47 | 1011.9 |
| 20260503044602 | 50 | 182 | 7.0 | 13.0 | 0.00 | 0.00 | 0.00 | 47 | 1011.9 |
| 20260503044045 | 50 | 187 | 7.0 | 13.0 | 0.00 | 0.00 | 0.00 | 48 | 1012.0 |
| 20260503043546 | 49 | 161 | 7.0 | 11.0 | 0.00 | 0.00 | 0.00 | 47 | 1012.1 |
| 20260503043055 | 49 | 190 | 7.0 | 10.0 | 0.00 | 0.00 | 0.00 | 47 | 1012.1 |
| 20260503042546 | 49 | 169 | 7.0 | 10.0 | 0.00 | 0.00 | 0.00 | 47 | 1012.2 |
| 20260503042046 | 49 | 184 | 7.0 | 10.0 | 0.00 | 0.00 | 0.00 | 47 | 1012.3 |
| 20260503041555 | 49 | 186 | 6.0 | 11.0 | 0.00 | 0.00 | 0.00 | 48 | 1012.4 |
| 20260503041045 | 49 | 191 | 6.0 | 11.0 | 0.00 | 0.00 | 0.00 | 47 | 1012.4 |
| 20260503040544 | 49 | 213 | 6.0 | 10.0 | 0.00 | 0.00 | 0.00 | 47 | 1012.5 |
| 20260503035547 | 49 | 181 | 6.0 | 12.0 | 0.00 | 0.00 | 0.00 | 47 | 1012.5 |
| 20260503035045 | 49 | 182 | 7.0 | 12.0 | 0.00 | 0.00 | 0.00 | 46 | 1012.6 |
| 20260503034601 | 49 | 182 | 6.0 | 9.0 | 0.00 | 0.00 | 0.00 | 47 | 1012.7 |
| 20260503034045 | 49 | 178 | 5.0 | 9.0 | 0.00 | 0.00 | 0.00 | 46 | 1012.8 |
| 20260503033548 | 49 | 171 | 4.0 | 10.0 | 0.00 | 0.00 | 0.00 | 46 | 1012.7 |
| 20260503033053 | 50 | 188 | 4.0 | 10.0 | 0.00 | 0.00 | 0.00 | 46 | 1012.8 |
| 20260503032547 | 50 | 182 | 4.0 | 9.0 | 0.00 | 0.00 | 0.00 | 46 | 1012.8 |
| 20260503032044 | 50 | 209 | 4.0 | 8.0 | 0.00 | 0.00 | 0.00 | 45 | 1012.8 |
| 20260503031554 | 49 | 182 | 3.0 | 8.0 | 0.00 | 0.00 | 0.00 | 47 | 1012.9 |
| 20260503031045 | 49 | 192 | 4.0 | 8.0 | 0.00 | 0.00 | 0.00 | 47 | 1012.9 |
| 20260503030545 | 49 | 183 | 3.0 | 7.0 | 0.00 | 0.00 | 0.00 | 47 | 1013.0 |
| 20260503030123 | 49 | 184 | 4.0 | 7.0 | 0.00 | 0.00 | 0.00 | 46 | 1013.1 |
| 20260503025546 | 49 | 186 | 4.0 | 7.0 | 0.00 | 0.00 | 0.00 | 47 | 1013.1 |
| 20260503025049 | 50 | 189 | 3.0 | 7.0 | 0.00 | 0.00 | 0.00 | 46 | 1013.1 |
| 20260503024601 | 50 | 175 | 4.0 | 7.0 | 0.00 | 0.00 | 0.00 | 47 | 1013.1 |